Total_Precipitation_Accumulation
0.16 0.23 0.30 0.32 0.27 0.21 0.18 0.21 0.34 0.32 0.37 0.47 0.58 0.59 0.71 0.80 0.73 0.68 0.62 0.60 0.59 0.62 0.66 0.72 0.76 0.78 0.87 0.82 0.97 0.95 1.01 1.09 1.18 1.16 1.16 1.14 1.08 1.03 1.06 1.13 1.08 1.18 1.33 1.38
0.15 0.18 0.22 0.25 0.26 0.18 0.14 0.12 0.15 0.27 0.48 0.51 0.53 0.58 0.65 0.68 0.69 0.66 0.71 0.77 0.78 0.76 0.79 0.73 0.69 0.66 0.62 0.65 0.75 0.83 0.94 0.92 0.99 1.07 1.01 0.97 0.98 0.96 0.98 1.05 1.11 1.18 1.19 1.25
0.24 0.21 0.26 0.31 0.26 0.19 0.14 0.13 0.14 0.31 0.58 0.57 0.57 0.62 0.70 0.75 0.78 0.68 0.66 0.71 0.77 0.76 0.73 0.62 0.59 0.58 0.58 0.61 0.64 0.68 0.78 0.91 1.01 1.05 1.01 0.93 1.00 1.11 1.05 1.12 1.14 1.13 1.08 1.08
0.34 0.41 0.56 0.38 0.25 0.21 0.21 0.20 0.21 0.27 0.37 0.44 0.57 0.60 0.56 0.62 0.74 0.75 0.73 0.76 0.77 0.71 0.65 0.60 0.57 0.58 0.56 0.55 0.58 0.63 0.66 0.74 0.86 0.95 0.93 0.93 0.95 1.01 1.09 1.19 1.22 1.16 1.04 1.03
0.47 0.57 0.50 0.42 0.35 0.33 0.36 0.37 0.34 0.42 0.40 0.46 0.52 0.54 0.60 0.50 0.53 0.56 0.68 0.68 0.70 0.69 0.72 0.74 0.67 0.70 0.72 0.66 0.68 0.75 0.78 0.83 0.81 0.87 0.97 1.03 1.06 1.10 1.17 1.21 1.25 1.28 1.18 1.16
0.62 0.76 0.78 0.65 0.53 0.46 0.48 0.79 0.60 0.56 0.58 0.66 0.68 0.76 0.88 0.65 0.54 0.60 0.65 0.64 0.68 0.64 0.60 0.67 0.71 0.81 0.88 0.89 0.87 0.93 1.02 1.10 1.10 1.14 1.19 1.19 1.31 1.43 1.47 1.46 1.38 1.39 1.38 1.35
0.81 0.93 0.96 0.74 0.61 0.55 0.92 1.12 0.75 0.67 0.73 0.71 0.73 0.83 0.82 0.73 0.67 0.72 0.59 0.56 0.60 0.69 0.65 0.66 0.72 0.85 0.99 1.08 1.05 1.10 1.17 1.27 1.37 1.47 1.61 1.72 1.84 1.79 1.75 1.75 1.74 1.62 1.52 1.49
1.14 1.30 1.23 0.78 0.73 1.00 1.18 0.92 0.95 0.85 0.76 0.71 0.67 0.74 0.78 0.77 0.71 0.60 0.59 0.57 0.60 0.71 0.70 0.71 0.79 0.90 1.00 1.11 1.21 1.34 1.43 1.56 1.67 1.82 1.89 1.99 2.31 2.35 2.37 2.30 2.05 1.86 1.80 1.69
1.23 1.32 1.05 0.89 1.05 1.10 1.07 1.07 1.09 1.03 0.83 0.75 0.67 0.68 0.74 0.66 0.56 0.48 0.49 0.52 0.57 0.71 0.79 0.79 0.86 1.05 1.25 1.26 1.34 1.50 1.62 1.80 1.94 2.01 2.13 2.28 2.43 2.45 2.47 2.41 2.17 1.98 1.97 1.90
1.27 1.36 1.15 1.05 1.04 1.09 1.06 1.01 1.01 0.99 1.04 1.02 0.87 0.76 0.78 0.71 0.59 0.53 0.51 0.55 0.59 0.70 0.84 1.00 1.09 1.23 1.43 1.42 1.50 1.64 1.74 1.85 1.95 2.05 2.15 2.30 2.46 2.41 2.34 2.26 2.18 2.10 2.08 2.06
1.52 1.47 1.32 1.20 1.18 1.31 1.26 1.11 1.12 1.08 1.09 1.13 0.94 0.78 0.71 0.72 0.71 0.68 0.68 0.71 0.73 0.80 0.94 1.15 1.31 1.41 1.47 1.51 1.66 1.82 1.84 1.91 1.99 2.02 2.04 2.15 2.23 2.32 2.21 2.13 2.07 2.07 2.08 2.11
1.62 1.48 1.56 1.44 1.22 1.29 1.37 1.21 1.24 1.21 1.12 0.93 0.85 0.81 0.76 0.75 0.78 0.75 0.76 0.77 0.81 0.89 0.99 1.14 1.30 1.46 1.58 1.69 1.81 1.93 1.95 1.87 1.91 1.99 2.05 2.09 2.06 1.95 1.85 1.79 1.70 1.64 1.70 1.74
1.29 1.23 1.33 1.30 1.24 1.31 1.43 1.30 1.08 1.03 1.04 0.93 0.81 0.75 0.72 0.68 0.64 0.66 0.69 0.71 0.79 0.91 0.98 1.06 1.19 1.37 1.58 1.81 1.98 2.06 2.10 2.10 2.08 2.14 2.23 2.23 2.20 2.11 2.00 1.83 1.63 1.49 1.41 1.38
1.12 1.11 1.16 1.16 1.29 1.28 1.30 1.20 0.97 0.90 0.90 0.87 0.81 0.78 0.72 0.63 0.56 0.55 0.63 0.70 0.75 0.84 0.96 1.04 1.13 1.29 1.47 1.67 1.85 1.99 2.04 2.12 2.13 2.12 2.16 2.14 2.11 2.10 2.08 1.98 1.85 1.64 1.41 1.29
1.23 1.16 1.21 1.19 1.20 1.22 1.19 1.07 0.99 0.89 0.78 0.74 0.72 0.75 0.78 0.71 0.64 0.60 0.60 0.61 0.67 0.76 0.89 1.04 1.17 1.25 1.35 1.45 1.55 1.69 1.81 1.91 1.98 1.97 1.96 2.00 1.99 1.96 1.96 1.94 1.83 1.68 1.45 1.34
1.29 1.27 1.24 1.22 1.18 1.11 1.05 0.98 0.93 0.88 0.76 0.77 0.77 0.70 0.70 0.73 0.71 0.66 0.62 0.63 0.72 0.79 0.89 1.08 1.16 1.26 1.46 1.56 1.62 1.70 1.79 1.88 1.91 1.86 1.74 1.70 1.70 1.72 1.68 1.70 1.69 1.57 1.43 1.30
1.34 1.36 1.27 1.27 1.21 1.15 1.14 1.08 0.99 0.88 0.77 0.77 0.80 0.74 0.67 0.62 0.64 0.63 0.61 0.62 0.67 0.74 0.86 1.03 1.10 1.12 1.32 1.56 1.69 1.69 1.66 1.63 1.65 1.65 1.59 1.50 1.51 1.57 1.60 1.61 1.56 1.45 1.32 1.18
1.33 1.24 1.15 1.13 1.16 1.16 1.11 1.02 0.97 0.92 0.83 0.76 0.75 0.74 0.70 0.65 0.65 0.65 0.63 0.63 0.66 0.68 0.72 0.81 0.93 1.01 1.11 1.31 1.49 1.57 1.58 1.51 1.44 1.41 1.39 1.32 1.26 1.31 1.38 1.39 1.30 1.21 1.12 1.00
1.14 1.05 1.00 1.01 1.08 1.15 1.12 1.02 0.93 0.90 0.85 0.79 0.76 0.77 0.72 0.67 0.63 0.63 0.63 0.68 0.79 0.85 0.78 0.77 0.91 0.93 1.02 1.16 1.31 1.34 1.41 1.46 1.37 1.21 1.17 1.24 1.18 1.15 1.10 1.07 1.01 0.96 0.89 0.84
1.10 1.01 0.99 1.09 1.15 1.24 1.29 1.13 0.98 0.95 0.91 0.84 0.79 0.77 0.73 0.71 0.68 0.69 0.71 0.78 0.87 0.93 0.89 0.83 0.76 0.76 0.89 1.10 1.22 1.17 1.17 1.23 1.21 1.11 1.08 1.10 1.08 1.05 0.94 0.90 0.86 0.84 0.83 0.81
1.13 1.10 1.07 1.08 1.13 1.20 1.24 1.11 0.97 0.94 0.86 0.78 0.75 0.75 0.74 0.70 0.67 0.75 0.88 0.94 0.87 0.86 0.85 0.84 0.76 0.74 0.77 0.96 1.04 1.05 1.04 1.05 1.07 1.03 1.02 1.03 1.01 0.97 0.89 0.88 0.84 0.81 0.75 0.72
1.09 1.09 1.03 0.99 0.99 1.02 1.00 0.93 0.80 0.75 0.68 0.63 0.63 0.65 0.70 0.68 0.64 0.67 0.74 0.85 0.89 0.92 0.83 0.80 0.75 0.73 0.70 0.79 0.84 0.94 1.00 0.93 0.89 0.85 0.85 0.85 0.88 0.86 0.78 0.75 0.72 0.65 0.61 0.61
0.93 0.88 0.84 0.80 0.79 0.80 0.74 0.69 0.66 0.64 0.61 0.60 0.62 0.70 0.78 0.76 0.73 0.82 0.81 0.72 0.76 0.77 0.72 0.71 0.71 0.68 0.61 0.63 0.74 0.82 0.90 0.90 0.88 0.80 0.75 0.73 0.71 0.69 0.66 0.62 0.57 0.55 0.57 0.56
0.73 0.73 0.72 0.64 0.62 0.69 0.73 0.68 0.60 0.56 0.53 0.53 0.53 0.63 0.81 0.92 0.87 0.82 0.78 0.74 0.67 0.59 0.55 0.56 0.51 0.50 0.52 0.54 0.64 0.72 0.80 0.83 0.83 0.76 0.69 0.65 0.59 0.59 0.63 0.61 0.55 0.51 0.51 0.50
0.65 0.60 0.63 0.65 0.66 0.74 0.75 0.68 0.59 0.54 0.55 0.56 0.53 0.61 0.77 0.91 0.98 0.89 0.74 0.65 0.58 0.51 0.49 0.47 0.43 0.45 0.47 0.51 0.60 0.70 0.77 0.78 0.79 0.74 0.65 0.60 0.54 0.53 0.57 0.57 0.53 0.48 0.45 0.43
0.72 0.67 0.70 0.72 0.74 0.79 0.77 0.72 0.72 0.72 0.74 0.76 0.74 0.76 0.80 0.80 0.82 0.81 0.71 0.60 0.52 0.52 0.51 0.50 0.46 0.46 0.49 0.57 0.62 0.67 0.74 0.74 0.73 0.68 0.58 0.55 0.51 0.52 0.57 0.56 0.51 0.49 0.44 0.39
0.78 0.74 0.75 0.80 0.87 0.87 0.81 0.80 0.85 0.90 0.97 1.04 1.08 0.99 0.94 0.89 0.83 0.73 0.64 0.55 0.49 0.49 0.50 0.49 0.45 0.44 0.49 0.59 0.64 0.68 0.69 0.69 0.64 0.59 0.58 0.55 0.52 0.54 0.57 0.54 0.50 0.45 0.39 0.37